Time,TemperatureF,DewpointF,PressureIn,WindDirection,WindDirectionDegrees,WindSpeedMPH,WindSpeedGustMPH,Humidity,HourlyPrecipIn,Conditions,Clouds,dailyrainin,SoftwareType,DateUTC
2013-04-14 00:03:00,69.0,-99.9,29.78,ENE,77,11.0,12.0,-999,-99.99,,,-99.99,,2013-04-14 05:03:00,
2013-04-14 00:12:00,69.0,-99.9,29.76,East,83,11.0,13.0,-999,-99.99,,,-99.99,,2013-04-14 05:12:00,
2013-04-14 00:23:00,68.0,-99.9,29.76,ENE,63,9.0,12.0,-999,-99.99,,,-99.99,,2013-04-14 05:23:00,
2013-04-14 00:32:00,69.0,-99.9,29.76,ENE,75,10.0,12.0,-999,-99.99,,,-99.99,,2013-04-14 05:32:00,
2013-04-14 00:43:00,68.0,-99.9,29.76,ENE,75,10.0,11.0,-999,-99.99,,,-99.99,,2013-04-14 05:43:00,
2013-04-14 00:53:00,69.0,-99.9,29.76,ENE,74,10.0,12.0,-999,-99.99,,,-99.99,,2013-04-14 05:53:00,
2013-04-14 01:02:00,69.0,-99.9,29.75,East,80,11.0,12.0,-999,-99.99,,,-99.99,,2013-04-14 06:02:00,
2013-04-14 01:12:00,69.0,-99.9,29.75,ENE,77,9.0,11.0,-999,-99.99,,,-99.99,,2013-04-14 06:12:00,
2013-04-14 01:22:00,69.0,-99.9,29.76,ENE,68,8.0,9.0,-999,-99.99,,,-99.99,,2013-04-14 06:22:00,
2013-04-14 01:32:00,69.0,-99.9,29.75,ENE,71,7.0,9.0,-999,-99.99,,,-99.99,,2013-04-14 06:32:00,
2013-04-14 01:42:00,68.0,-99.9,29.75,ENE,72,6.0,8.0,-999,-99.99,,,-99.99,,2013-04-14 06:42:00,
2013-04-14 01:53:00,68.0,-99.9,29.76,NE,49,5.0,6.0,-999,-99.99,,,-99.99,,2013-04-14 06:53:00,
2013-04-14 02:03:00,68.0,-99.9,29.76,NE,40,5.0,6.0,-999,-99.99,,,-99.99,,2013-04-14 07:03:00,
2013-04-14 02:12:00,68.0,-99.9,29.75,NE,40,4.0,6.0,-999,-99.99,,,-99.99,,2013-04-14 07:12:00,
2013-04-14 02:23:00,69.0,-99.9,29.75,NE,49,5.0,5.0,-999,-99.99,,,-99.99,,2013-04-14 07:23:00,
2013-04-14 02:33:00,69.0,-99.9,29.75,NNE,28,4.0,5.0,-999,-99.99,,,-99.99,,2013-04-14 07:33:00,
2013-04-14 02:42:00,69.0,-99.9,29.75,NNE,17,5.0,6.0,-999,-99.99,,,-99.99,,2013-04-14 07:42:00,
2013-04-14 02:53:00,69.0,-99.9,29.75,NNE,21,4.0,5.0,-999,-99.99,,,-99.99,,2013-04-14 07:53:00,
2013-04-14 03:03:00,69.0,-99.9,29.75,NNE,18,5.0,6.0,-999,-99.99,,,-99.99,,2013-04-14 08:03:00,
2013-04-14 03:13:00,69.0,-99.9,29.75,NNE,24,4.0,5.0,-999,-99.99,,,-99.99,,2013-04-14 08:13:00,
2013-04-14 03:23:00,69.0,-99.9,29.76,North,3,5.0,6.0,-999,-99.99,,,-99.99,,2013-04-14 08:23:00,
2013-04-14 03:33:00,69.0,-99.9,29.75,NNE,16,5.0,6.0,-999,-99.99,,,-99.99,,2013-04-14 08:33:00,
2013-04-14 03:43:00,69.0,-99.9,29.75,NNE,25,4.0,6.0,-999,-99.99,,,-99.99,,2013-04-14 08:43:00,
2013-04-14 03:52:00,69.0,-99.9,29.75,North,7,4.0,5.0,-999,-99.99,,,-99.99,,2013-04-14 08:52:00,
2013-04-14 04:03:00,68.0,-99.9,29.74,North,5,5.0,6.0,-999,-99.99,,,-99.99,,2013-04-14 09:03:00,
2013-04-14 04:12:00,68.0,-99.9,29.74,NNE,26,4.0,5.0,-999,-99.99,,,-99.99,,2013-04-14 09:12:00,
2013-04-14 04:22:00,69.0,-99.9,29.74,NE,34,4.0,6.0,-999,-99.99,,,-99.99,,2013-04-14 09:22:00,
2013-04-14 04:33:00,68.0,-99.9,29.73,NE,40,6.0,6.0,-999,-99.99,,,-99.99,,2013-04-14 09:33:00,
2013-04-14 04:43:00,68.0,-99.9,29.73,NE,49,7.0,7.0,-999,-99.99,,,-99.99,,2013-04-14 09:43:00,
2013-04-14 04:54:00,68.0,-99.9,29.72,NE,48,6.0,7.0,-999,-99.99,,,-99.99,,2013-04-14 09:54:00,
2013-04-14 05:03:00,68.0,-99.9,29.71,NE,55,7.0,8.0,-999,-99.99,,,-99.99,,2013-04-14 10:03:00,
2013-04-14 05:13:00,68.0,-99.9,29.71,ENE,70,7.0,7.0,-999,-99.99,,,-99.99,,2013-04-14 10:13:00,
2013-04-14 05:23:00,68.0,-99.9,29.71,East,83,7.0,8.0,-999,-99.99,,,-99.99,,2013-04-14 10:23:00,
2013-04-14 05:33:00,68.0,-99.9,29.70,East,94,7.0,7.0,-999,-99.99,,,-99.99,,2013-04-14 10:33:00,
2013-04-14 05:43:00,68.0,-99.9,29.70,East,95,7.0,7.0,-999,-99.99,,,-99.99,,2013-04-14 10:43:00,
2013-04-14 05:53:00,68.0,-99.9,29.70,East,80,6.0,7.0,-999,-99.99,,,-99.99,,2013-04-14 10:53:00,
2013-04-14 06:03:00,68.0,-99.9,29.70,East,85,7.0,7.0,-999,-99.99,,,-99.99,,2013-04-14 11:03:00,
2013-04-14 06:13:00,68.0,-99.9,29.71,East,93,7.0,7.0,-999,-99.99,,,-99.99,,2013-04-14 11:13:00,
2013-04-14 06:23:00,68.0,-99.9,29.71,ESE,106,6.0,7.0,-999,-99.99,,,-99.99,,2013-04-14 11:23:00,
2013-04-14 06:33:00,68.0,-99.9,29.71,ESE,111,7.0,8.0,-999,-99.99,,,-99.99,,2013-04-14 11:33:00,
2013-04-14 06:42:00,68.0,-99.9,29.70,ESE,113,9.0,9.0,-999,-99.99,,,-99.99,,2013-04-14 11:42:00,
2013-04-14 06:53:00,68.0,-99.9,29.70,ESE,119,8.0,9.0,-999,-99.99,,,-99.99,,2013-04-14 11:53:00,
2013-04-14 07:02:00,68.0,-99.9,29.71,SE,128,11.0,11.0,-999,-99.99,,,-99.99,,2013-04-14 12:02:00,
2013-04-14 07:12:00,68.0,-99.9,29.70,SE,128,10.0,12.0,-999,-99.99,,,-99.99,,2013-04-14 12:12:00,
2013-04-14 07:22:00,68.0,-99.9,29.71,SE,134,8.0,9.0,-999,-99.99,,,-99.99,,2013-04-14 12:22:00,
2013-04-14 07:32:00,69.0,-99.9,29.71,SE,128,11.0,11.0,-999,-99.99,,,-99.99,,2013-04-14 12:32:00,
2013-04-14 07:42:00,68.0,-99.9,29.71,SE,131,11.0,12.0,-999,-99.99,,,-99.99,,2013-04-14 12:42:00,
2013-04-14 07:52:00,68.0,-99.9,29.70,SE,132,12.0,13.0,-999,-99.99,,,-99.99,,2013-04-14 12:52:00,
2013-04-14 08:02:00,68.0,-99.9,29.70,SE,135,10.0,12.0,-999,-99.99,,,-99.99,,2013-04-14 13:02:00,
2013-04-14 08:12:00,69.0,-99.9,29.70,SE,138,10.0,11.0,-999,-99.99,,,-99.99,,2013-04-14 13:12:00,
2013-04-14 08:23:00,69.0,-99.9,29.72,SE,144,9.0,11.0,-999,-99.99,,,-99.99,,2013-04-14 13:23:00,
2013-04-14 08:33:00,69.0,-99.9,29.72,SSE,147,10.0,11.0,-999,-99.99,,,-99.99,,2013-04-14 13:33:00,
2013-04-14 08:43:00,69.0,-99.9,29.72,SSE,150,10.0,12.0,-999,-99.99,,,-99.99,,2013-04-14 13:43:00,
2013-04-14 08:52:00,69.0,-99.9,29.72,SE,146,8.0,10.0,-999,-99.99,,,-99.99,,2013-04-14 13:52:00,
2013-04-14 09:03:00,69.0,-99.9,29.73,SE,131,7.0,8.0,-999,-99.99,,,-99.99,,2013-04-14 14:03:00,
2013-04-14 09:12:00,69.0,-99.9,29.73,SE,130,6.0,8.0,-999,-99.99,,,-99.99,,2013-04-14 14:12:00,
2013-04-14 09:22:00,69.0,-99.9,29.73,ESE,121,5.0,6.0,-999,-99.99,,,-99.99,,2013-04-14 14:22:00,
2013-04-14 09:32:00,69.0,-99.9,29.74,SE,139,5.0,6.0,-999,-99.99,,,-99.99,,2013-04-14 14:32:00,
2013-04-14 09:42:00,69.0,-99.9,29.74,SSE,149,6.0,6.0,-999,-99.99,,,-99.99,,2013-04-14 14:42:00,
2013-04-14 09:53:00,69.0,-99.9,29.75,SSE,151,5.0,6.0,-999,-99.99,,,-99.99,,2013-04-14 14:53:00,
2013-04-14 10:03:00,69.0,-99.9,29.75,SSE,156,6.0,8.0,-999,-99.99,,,-99.99,,2013-04-14 15:03:00,
2013-04-14 10:13:00,69.0,-99.9,29.75,SSE,151,6.0,8.0,-999,-99.99,,,-99.99,,2013-04-14 15:13:00,
2013-04-14 10:23:00,69.0,-99.9,29.75,SE,146,7.0,8.0,-999,-99.99,,,-99.99,,2013-04-14 15:23:00,
2013-04-14 10:34:00,69.0,-99.9,29.75,SSE,154,6.0,7.0,-999,-99.99,,,-99.99,,2013-04-14 15:34:00,
2013-04-14 10:44:00,69.0,-99.9,29.76,SSE,152,7.0,8.0,-999,-99.99,,,-99.99,,2013-04-14 15:44:00,
2013-04-14 10:53:00,69.0,-99.9,29.76,SSE,151,7.0,8.0,-999,-99.99,,,-99.99,,2013-04-14 15:53:00,
2013-04-14 11:05:00,69.0,-99.9,29.76,SSE,148,8.0,9.0,-999,-99.99,,,-99.99,,2013-04-14 16:05:00,
2013-04-14 11:13:00,69.0,-99.9,29.76,SE,144,7.0,9.0,-999,-99.99,,,-99.99,,2013-04-14 16:13:00,
2013-04-14 11:23:00,70.0,-99.9,29.76,SSE,148,8.0,9.0,-999,-99.99,,,-99.99,,2013-04-14 16:23:00,
2013-04-14 11:33:00,70.0,-99.9,29.76,SE,143,10.0,11.0,-999,-99.99,,,-99.99,,2013-04-14 16:33:00,
2013-04-14 11:43:00,70.0,-99.9,29.75,SSE,148,10.0,11.0,-999,-99.99,,,-99.99,,2013-04-14 16:43:00,
2013-04-14 11:53:00,70.0,-99.9,29.76,SE,145,11.0,13.0,-999,-99.99,,,-99.99,,2013-04-14 16:53:00,
2013-04-14 12:02:00,70.0,-99.9,29.75,SE,144,12.0,13.0,-999,-99.99,,,-99.99,,2013-04-14 17:02:00,
2013-04-14 12:13:00,70.0,-99.9,29.75,SE,146,12.0,14.0,-999,-99.99,,,-99.99,,2013-04-14 17:13:00,
2013-04-14 12:23:00,70.0,-99.9,29.75,SSE,155,10.0,13.0,-999,-99.99,,,-99.99,,2013-04-14 17:23:00,
2013-04-14 12:33:00,70.0,-99.9,29.75,SSE,150,10.0,11.0,-999,-99.99,,,-99.99,,2013-04-14 17:33:00,
2013-04-14 12:43:00,70.0,-99.9,29.75,SSE,147,10.0,12.0,-999,-99.99,,,-99.99,,2013-04-14 17:43:00,
2013-04-14 12:53:00,70.0,-99.9,29.75,SE,144,9.0,10.0,-999,-99.99,,,-99.99,,2013-04-14 17:53:00,
2013-04-14 13:03:00,70.0,-99.9,29.74,SE,146,11.0,11.0,-999,-99.99,,,-99.99,,2013-04-14 18:03:00,
2013-04-14 13:13:00,70.0,-99.9,29.74,SE,146,10.0,12.0,-999,-99.99,,,-99.99,,2013-04-14 18:13:00,
2013-04-14 13:22:00,70.0,-99.9,29.74,SSE,151,9.0,12.0,-999,-99.99,,,-99.99,,2013-04-14 18:22:00,
2013-04-14 13:33:00,70.0,-99.9,29.74,SE,146,11.0,12.0,-999,-99.99,,,-99.99,,2013-04-14 18:33:00,
2013-04-14 13:43:00,70.0,-99.9,29.73,SE,141,11.0,13.0,-999,-99.99,,,-99.99,,2013-04-14 18:43:00,
2013-04-14 13:54:00,70.0,-99.9,29.73,SE,139,11.0,13.0,-999,-99.99,,,-99.99,,2013-04-14 18:54:00,
2013-04-14 14:04:00,70.0,-99.9,29.72,SE,137,11.0,13.0,-999,-99.99,,,-99.99,,2013-04-14 19:04:00,
2013-04-14 14:12:00,70.0,-99.9,29.72,SE,133,12.0,13.0,-999,-99.99,,,-99.99,,2013-04-14 19:12:00,
2013-04-14 14:23:00,71.0,-99.9,29.71,SE,133,13.0,15.0,-999,-99.99,,,-99.99,,2013-04-14 19:23:00,
2013-04-14 14:33:00,71.0,-99.9,29.71,SE,126,13.0,15.0,-999,-99.99,,,-99.99,,2013-04-14 19:33:00,
2013-04-14 14:43:00,71.0,-99.9,29.70,SE,129,12.0,15.0,-999,-99.99,,,-99.99,,2013-04-14 19:43:00,
2013-04-14 14:53:00,71.0,-99.9,29.70,ESE,123,13.0,14.0,-999,-99.99,,,-99.99,,2013-04-14 19:53:00,
2013-04-14 15:03:00,71.0,-99.9,29.70,SE,124,14.0,15.0,-999,-99.99,,,-99.99,,2013-04-14 20:03:00,
2013-04-14 15:13:00,71.0,-99.9,29.70,ESE,119,15.0,17.0,-999,-99.99,,,-99.99,,2013-04-14 20:13:00,
2013-04-14 15:22:00,71.0,-99.9,29.69,ESE,121,15.0,17.0,-999,-99.99,,,-99.99,,2013-04-14 20:22:00,
2013-04-14 15:33:00,71.0,-99.9,29.69,ESE,117,15.0,17.0,-999,-99.99,,,-99.99,,2013-04-14 20:33:00,
2013-04-14 15:43:00,71.0,-99.9,29.69,ESE,117,15.0,16.0,-999,-99.99,,,-99.99,,2013-04-14 20:43:00,
2013-04-14 15:53:00,71.0,-99.9,29.68,ESE,115,15.0,16.0,-999,-99.99,,,-99.99,,2013-04-14 20:53:00,
2013-04-14 16:02:00,71.0,-99.9,29.68,ESE,111,14.0,16.0,-999,-99.99,,,-99.99,,2013-04-14 21:02:00,
2013-04-14 16:13:00,71.0,-99.9,29.67,ESE,107,15.0,16.0,-999,-99.99,,,-99.99,,2013-04-14 21:13:00,
2013-04-14 16:23:00,71.0,-99.9,29.67,ESE,109,15.0,17.0,-999,-99.99,,,-99.99,,2013-04-14 21:23:00,
2013-04-14 16:33:00,71.0,-99.9,29.67,ESE,109,16.0,17.0,-999,-99.99,,,-99.99,,2013-04-14 21:33:00,
2013-04-14 16:43:00,71.0,-99.9,29.67,ESE,107,16.0,17.0,-999,-99.99,,,-99.99,,2013-04-14 21:43:00,
2013-04-14 16:54:00,71.0,-99.9,29.66,ESE,113,16.0,18.0,-999,-99.99,,,-99.99,,2013-04-14 21:54:00,
2013-04-14 17:03:00,71.0,-99.9,29.66,ESE,112,17.0,19.0,-999,-99.99,,,-99.99,,2013-04-14 22:03:00,
2013-04-14 17:13:00,71.0,-99.9,29.66,ESE,114,17.0,19.0,-999,-99.99,,,-99.99,,2013-04-14 22:13:00,
2013-04-14 17:23:00,71.0,-99.9,29.66,ESE,116,17.0,19.0,-999,-99.99,,,-99.99,,2013-04-14 22:23:00,
2013-04-14 17:33:00,71.0,-99.9,29.66,ESE,119,17.0,19.0,-999,-99.99,,,-99.99,,2013-04-14 22:33:00,
2013-04-14 17:44:00,71.0,-99.9,29.66,ESE,119,17.0,20.0,-999,-99.99,,,-99.99,,2013-04-14 22:44:00,
2013-04-14 17:53:00,71.0,-99.9,29.65,ESE,119,19.0,21.0,-999,-99.99,,,-99.99,,2013-04-14 22:53:00,
2013-04-14 18:02:00,71.0,-99.9,29.66,ESE,121,17.0,20.0,-999,-99.99,,,-99.99,,2013-04-14 23:02:00,
2013-04-14 18:13:00,71.0,-99.9,29.66,ESE,121,18.0,20.0,-999,-99.99,,,-99.99,,2013-04-14 23:13:00,
2013-04-14 18:23:00,71.0,-99.9,29.66,ESE,123,17.0,20.0,-999,-99.99,,,-99.99,,2013-04-14 23:23:00,
2013-04-14 18:33:00,71.0,-99.9,29.66,ESE,123,18.0,20.0,-999,-99.99,,,-99.99,,2013-04-14 23:33:00,
2013-04-14 18:43:00,71.0,-99.9,29.66,SE,128,18.0,20.0,-999,-99.99,,,-99.99,,2013-04-14 23:43:00,
2013-04-14 18:53:00,71.0,-99.9,29.66,SE,128,18.0,21.0,-999,-99.99,,,-99.99,,2013-04-14 23:53:00,
2013-04-14 19:02:00,71.0,-99.9,29.66,SE,130,18.0,20.0,-999,-99.99,,,-99.99,,2013-04-15 00:02:00,
2013-04-14 19:13:00,71.0,-99.9,29.66,SE,132,18.0,20.0,-999,-99.99,,,-99.99,,2013-04-15 00:13:00,
2013-04-14 19:23:00,71.0,-99.9,29.66,SE,133,18.0,20.0,-999,-99.99,,,-99.99,,2013-04-15 00:23:00,
2013-04-14 19:33:00,71.0,-99.9,29.65,SE,134,19.0,21.0,-999,-99.99,,,-99.99,,2013-04-15 00:33:00,
2013-04-14 19:43:00,71.0,-99.9,29.65,SE,131,19.0,23.0,-999,-99.99,,,-99.99,,2013-04-15 00:43:00,
2013-04-14 19:53:00,71.0,-99.9,29.65,SE,133,19.0,22.0,-999,-99.99,,,-99.99,,2013-04-15 00:53:00,
2013-04-14 20:03:00,71.0,-99.9,29.66,SE,134,19.0,21.0,-999,-99.99,,,-99.99,,2013-04-15 01:03:00,
2013-04-14 20:13:00,71.0,-99.9,29.66,SE,132,18.0,22.0,-999,-99.99,,,-99.99,,2013-04-15 01:13:00,
2013-04-14 20:23:00,71.0,-99.9,29.66,SE,132,19.0,21.0,-999,-99.99,,,-99.99,,2013-04-15 01:23:00,
2013-04-14 20:33:00,71.0,-99.9,29.66,SE,133,19.0,21.0,-999,-99.99,,,-99.99,,2013-04-15 01:33:00,
2013-04-14 20:43:00,71.0,-99.9,29.66,SE,132,19.0,22.0,-999,-99.99,,,-99.99,,2013-04-15 01:43:00,
2013-04-14 20:52:00,71.0,-99.9,29.65,SE,132,20.0,22.0,-999,-99.99,,,-99.99,,2013-04-15 01:52:00,
2013-04-14 21:03:00,71.0,-99.9,29.65,SE,132,19.0,22.0,-999,-99.99,,,-99.99,,2013-04-15 02:03:00,
2013-04-14 21:13:00,71.0,-99.9,29.66,SE,133,20.0,22.0,-999,-99.99,,,-99.99,,2013-04-15 02:13:00,
2013-04-14 21:22:00,71.0,-99.9,29.66,SE,130,19.0,22.0,-999,-99.99,,,-99.99,,2013-04-15 02:22:00,
2013-04-14 21:32:00,71.0,-99.9,29.66,SE,129,18.0,21.0,-999,-99.99,,,-99.99,,2013-04-15 02:32:00,
2013-04-14 21:42:00,71.0,-99.9,29.67,SE,133,19.0,21.0,-999,-99.99,,,-99.99,,2013-04-15 02:42:00,
2013-04-14 21:53:00,71.0,-99.9,29.67,SE,132,19.0,21.0,-999,-99.99,,,-99.99,,2013-04-15 02:53:00,
2013-04-14 22:03:00,71.0,-99.9,29.67,SE,130,18.0,22.0,-999,-99.99,,,-99.99,,2013-04-15 03:03:00,
2013-04-14 22:12:00,71.0,-99.9,29.68,SE,133,18.0,20.0,-999,-99.99,,,-99.99,,2013-04-15 03:12:00,
2013-04-14 22:22:00,71.0,-99.9,29.68,SE,132,17.0,20.0,-999,-99.99,,,-99.99,,2013-04-15 03:22:00,
2013-04-14 22:33:00,71.0,-99.9,29.69,SE,134,16.0,18.0,-999,-99.99,,,-99.99,,2013-04-15 03:33:00,
2013-04-14 22:43:00,71.0,-99.9,29.70,SE,137,17.0,19.0,-999,-99.99,,,-99.99,,2013-04-15 03:43:00,
2013-04-14 22:55:00,71.0,-99.9,29.70,SE,140,17.0,20.0,-999,-99.99,,,-99.99,,2013-04-15 03:55:00,
2013-04-14 23:03:00,71.0,-99.9,29.70,SE,145,16.0,18.0,-999,-99.99,,,-99.99,,2013-04-15 04:03:00,
2013-04-14 23:13:00,71.0,-99.9,29.71,SSE,147,17.0,19.0,-999,-99.99,,,-99.99,,2013-04-15 04:13:00,
2013-04-14 23:23:00,71.0,-99.9,29.71,SSE,150,18.0,19.0,-999,-99.99,,,-99.99,,2013-04-15 04:23:00,
2013-04-14 23:33:00,71.0,-99.9,29.71,SSE,150,17.0,20.0,-999,-99.99,,,-99.99,,2013-04-15 04:33:00,
2013-04-14 23:43:00,71.0,-99.9,29.71,SSE,148,17.0,20.0,-999,-99.99,,,-99.99,,2013-04-15 04:43:00,
2013-04-14 23:53:00,71.0,-99.9,29.71,SSE,148,16.0,19.0,-999,-99.99,,,-99.99,,2013-04-15 04:53:00,